Location: Courcelles
(49.2596°N, 1.7419°E)
Time: 07:03:57
(UTC+00:00)

Cosmos 1190 Rocket - Pass Details

Date: 17 November 2025
Orbit: 752 x 775 km, 74.1° (Epoch: 10 December)

Event Time Altitude Azimuth Distance (km) Brightness Sun altitude
Rises 18:32:09 0° 208° (SSW) 3,241 7.7 -23.1°
Reaches altitude 10° 18:34:31 10° 210° (SSW) 2,319 6.9 -23.5°
Maximum altitude 18:39:47 72° 295° (WNW) 818 4.2 -24.4°
Enters shadow 18:42:25 30° 13° (NNE) 1,360 5.1 -24.8°
